| time (UTC) | temp C | wind direction | speed KPH | gust KPH | rain 1hr cm | rain 24hr cm | rain mn cm | humidity % | barometer mb |
| 20260505124535 | 14 | 69 | 6.4 | 9.7 | 0.00 | 0.23 | 0.23 | 82 | 1006.6 |
| 20260505123533 | 13 | 62 | 6.4 | 12.9 | 0.00 | 0.23 | 0.23 | 84 | 1006.4 |
| 20260505122531 | 14 | 52 | 6.4 | 9.7 | 0.00 | 0.23 | 0.23 | 84 | 1006.1 |
| 20260505121609 | 14 | 61 | 6.4 | 12.9 | 0.03 | 0.23 | 0.23 | 86 | 1005.9 |
| 20260505120527 | 14 | 71 | 4.8 | 9.7 | 0.03 | 0.23 | 0.23 | 86 | 1006.2 |
| 20260505115525 | 14 | 70 | 6.4 | 12.9 | 0.03 | 0.23 | 0.23 | 86 | 1005.9 |
| 20260505114543 | 15 | 47 | 6.4 | 9.7 | 0.03 | 0.23 | 0.23 | 85 | 1006.0 |
| 20260505113522 | 15 | 67 | 6.4 | 9.7 | 0.03 | 0.23 | 0.23 | 86 | 1005.7 |
| 20260505112520 | 15 | 36 | 8.0 | 22.5 | 0.03 | 0.23 | 0.23 | 85 | 1005.9 |
| 20260505111518 | 16 | 51 | 8.0 | 16.1 | 0.03 | 0.20 | 0.20 | 85 | 1005.3 |
| 20260505110516 | 16 | 57 | 6.4 | 14.5 | 0.03 | 0.20 | 0.20 | 86 | 1006.3 |
| 20260505101527 | 16 | 62 | 6.4 | 16.1 | 0.03 | 0.18 | 0.18 | 86 | 1005.3 |
| 20260505100525 | 15 | 45 | 6.4 | 9.7 | 0.03 | 0.18 | 0.18 | 87 | 1005.3 |
| 20260505095523 | 16 | 60 | 3.2 | 8.0 | 0.03 | 0.18 | 0.18 | 83 | 1004.7 |
| 20260505094521 | 16 | 318 | 3.2 | 6.4 | 0.05 | 0.18 | 0.18 | 81 | 1004.6 |
| 20260505093539 | 16 | 79 | 4.8 | 8.0 | 0.05 | 0.15 | 0.15 | 79 | 1004.4 |
| 20260505092618 | 16 | 263 | 4.8 | 12.9 | 0.10 | 0.15 | 0.15 | 78 | 1004.5 |
| 20260505091516 | 15 | 288 | 4.8 | 12.9 | 0.10 | 0.15 | 0.15 | 84 | 1003.7 |
| 20260505090534 | 15 | 191 | 8.0 | 19.3 | 0.13 | 0.15 | 0.15 | 90 | 1002.8 |
| 20260505085552 | 16 | 200 | 9.7 | 20.9 | 0.15 | 0.15 | 0.15 | 89 | 1003.6 |
| 20260505084530 | 16 | 174 | 8.0 | 16.1 | 0.13 | 0.13 | 0.13 | 90 | 1004.8 |
| 20260505083528 | 16 | 245 | 6.4 | 12.9 | 0.10 | 0.10 | 0.10 | 89 | 1005.6 |
| 20260505082546 | 16 | 199 | 6.4 | 12.9 | 0.05 | 0.05 | 0.05 | 88 | 1005.6 |
| 20260505081545 | 16 | 70 | 4.8 | 9.7 | 0.05 | 0.05 | 0.05 | 86 | 1005.5 |
| 20260505080523 | 17 | 236 | 3.2 | 9.7 | 0.03 | 0.03 | 0.03 | 82 | 1005.2 |
| 20260505075521 | 17 | 232 | 8.0 | 17.7 | 0.00 | 0.00 | 0.00 | 79 | 1005.1 |
| 20260505074539 | 17 | 236 | 8.0 | 16.1 | 0.00 | 0.00 | 0.00 | 75 | 1005.3 |
| 20260505073557 | 17 | 253 | 8.0 | 14.5 | 0.00 | 0.00 | 0.00 | 73 | 1005.2 |
| 20260505072515 | 17 | 222 | 4.8 | 9.7 | 0.00 | 0.00 | 0.00 | 73 | 1005.0 |
| 20260505071533 | 17 | 238 | 6.4 | 11.3 | 0.00 | 0.00 | 0.00 | 71 | 1005.1 |
| 20260505070532 | 17 | 220 | 4.8 | 9.7 | 0.00 | 0.00 | 0.00 | 71 | 1005.0 |
| 20260505065530 | 17 | 212 | 4.8 | 11.3 | 0.00 | 0.00 | 0.00 | 71 | 1004.9 |
| 20260505064528 | 17 | 233 | 4.8 | 9.7 | 0.00 | 0.00 | 0.00 | 72 | 1005.2 |
| 20260505063526 | 17 | 221 | 4.8 | 8.0 | 0.00 | 0.00 | 0.00 | 71 | 1005.5 |
| 20260505062524 | 17 | 206 | 4.8 | 9.7 | 0.00 | 0.00 | 0.00 | 71 | 1005.6 |
| 20260505061522 | 17 | 233 | 4.8 | 9.7 | 0.00 | 0.00 | 0.00 | 71 | 1005.7 |
| 20260505060520 | 17 | 197 | 4.8 | 11.3 | 0.00 | 0.00 | 0.00 | 71 | 1005.7 |
| 20260505055518 | 17 | 208 | 3.2 | 9.7 | 0.00 | 0.00 | 0.00 | 71 | 1005.6 |
| 20260505054517 | 17 | 197 | 4.8 | 9.7 | 0.00 | 0.00 | 0.00 | 71 | 1005.5 |
| 20260505053535 | 18 | 218 | 6.4 | 9.7 | 0.00 | 0.00 | 0.00 | 70 | 1005.6 |
| 20260505052533 | 18 | 223 | 4.8 | 9.7 | 0.00 | 0.00 | 0.00 | 70 | 1005.5 |
| 20260505051531 | 18 | 230 | 6.4 | 9.7 | 0.00 | 0.00 | 0.00 | 70 | 1005.6 |
| 20260505050529 | 18 | 207 | 8.0 | 12.9 | 0.00 | 0.00 | 0.00 | 70 | 1005.5 |
| 20260505041520 | 18 | 218 | 4.8 | 9.7 | 0.00 | 0.00 | 0.00 | 67 | 1006.2 |
| 20260505040518 | 18 | 236 | 3.2 | 4.8 | 0.00 | 0.00 | 0.00 | 66 | 1006.5 |
| 20260505035537 | 19 | 232 | 3.2 | 6.4 | 0.00 | 0.00 | 0.00 | 65 | 1006.6 |
| 20260505034534 | 19 | 214 | 3.2 | 6.4 | 0.00 | 0.00 | 0.00 | 65 | 1006.7 |
| 20260505033553 | 20 | 233 | 3.2 | 6.4 | 0.00 | 0.00 | 0.00 | 64 | 1006.7 |
| 20260505032531 | 20 | 209 | 3.2 | 6.4 | 0.00 | 0.00 | 0.00 | 63 | 1006.7 |
| 20260505031529 | 20 | 224 | 3.2 | 8.0 | 0.00 | 0.00 | 0.00 | 62 | 1006.8 |
| 20260505030527 | 20 | 253 | 4.8 | 12.9 | 0.00 | 0.00 | 0.00 | 61 | 1006.7 |
| 20260505025525 | 20 | 236 | 4.8 | 9.7 | 0.00 | 0.00 | 0.00 | 61 | 1006.6 |
| 20260505024523 | 20 | 233 | 6.4 | 14.5 | 0.00 | 0.00 | 0.00 | 60 | 1006.5 |
| 20260505023522 | 21 | 227 | 4.8 | 6.4 | 0.00 | 0.00 | 0.00 | 60 | 1006.3 |
| 20260505022519 | 21 | 236 | 6.4 | 9.7 | 0.00 | 0.00 | 0.00 | 60 | 1006.0 |
| 20260505021518 | 21 | 222 | 6.4 | 14.5 | 0.00 | 0.00 | 0.00 | 59 | 1006.1 |
| 20260505020516 | 21 | 240 | 6.4 | 12.9 | 0.00 | 0.00 | 0.00 | 59 | 1006.0 |
| 20260505015534 | 21 | 231 | 4.8 | 9.7 | 0.00 | 0.00 | 0.00 | 58 | 1005.8 |
| 20260505014532 | 21 | 252 | 3.2 | 9.7 | 0.00 | 0.00 | 0.00 | 57 | 1005.6 |
| 20260505013530 | 21 | 243 | 3.2 | 8.0 | 0.00 | 0.00 | 0.00 | 57 | 1005.5 |
| 20260505012529 | 21 | 231 | 4.8 | 8.0 | 0.00 | 0.00 | 0.00 | 56 | 1005.3 |
| 20260505011526 | 22 | 239 | 4.8 | 9.7 | 0.00 | 0.00 | 0.00 | 55 | 1005.2 |
| 20260505010525 | 22 | 218 | 3.2 | 4.8 | 0.00 | 0.00 | 0.00 | 55 | 1005.1 |
| 20260505005523 | 22 | 229 | 4.8 | 6.4 | 0.00 | 0.00 | 0.00 | 52 | 1005.1 |
| 20260505004521 | 23 | 241 | 6.4 | 9.7 | 0.00 | 0.00 | 0.00 | 51 | 1005.0 |
| 20260505003519 | 23 | 246 | 6.4 | 16.1 | 0.00 | 0.00 | 0.00 | 50 | 1004.9 |
| 20260505002517 | 23 | 237 | 6.4 | 16.1 | 0.00 | 0.00 | 0.00 | 50 | 1004.9 |
| 20260505001536 | 23 | 242 | 4.8 | 9.7 | 0.00 | 0.00 | 0.00 | 49 | 1004.9 |
| 20260505000533 | 24 | 226 | 4.8 | 6.4 | 0.00 | 0.00 | 0.00 | 48 | 1004.8 |
| 20260504235532 | 24 | 238 | 4.8 | 9.7 | 0.00 | 0.00 | 0.00 | 47 | 1004.9 |
| 20260504234530 | 24 | 243 | 8.0 | 14.5 | 0.00 | 0.00 | 0.00 | 46 | 1004.8 |
| 20260504233528 | 25 | 235 | 8.0 | 16.1 | 0.00 | 0.00 | 0.00 | 46 | 1004.7 |
| 20260504232526 | 25 | 240 | 9.7 | 17.7 | 0.00 | 0.00 | 0.00 | 46 | 1004.7 |
| 20260504231525 | 25 | 233 | 9.7 | 24.1 | 0.00 | 0.00 | 0.00 | 45 | 1004.7 |
| 20260504230543 | 26 | 242 | 8.0 | 14.5 | 0.00 | 0.00 | 0.00 | 45 | 1004.8 |
| 20260504225521 | 26 | 244 | 8.0 | 19.3 | 0.00 | 0.00 | 0.00 | 45 | 1004.9 |
| 20260504224519 | 26 | 239 | 11.3 | 25.7 | 0.00 | 0.00 | 0.00 | 43 | 1004.8 |
| 20260504223517 | 26 | 229 | 11.3 | 25.7 | 0.00 | 0.00 | 0.00 | 43 | 1004.8 |
| 20260504222515 | 27 | 245 | 8.0 | 16.1 | 0.00 | 0.00 | 0.00 | 43 | 1004.8 |
| 20260504221533 | 26 | 249 | 11.3 | 24.1 | 0.00 | 0.00 | 0.00 | 43 | 1004.8 |
| 20260504220531 | 26 | 242 | 9.7 | 24.1 | 0.00 | 0.00 | 0.00 | 44 | 1005.0 |
| 20260504215530 | 26 | 231 | 9.7 | 17.7 | 0.00 | 0.00 | 0.00 | 44 | 1005.0 |
| 20260504214528 | 27 | 241 | 12.9 | 24.1 | 0.00 | 0.00 | 0.00 | 43 | 1005.0 |
| 20260504213546 | 27 | 245 | 8.0 | 14.5 | 0.00 | 0.00 | 0.00 | 46 | 1005.2 |
| 20260504212524 | 26 | 238 | 11.3 | 20.9 | 0.00 | 0.00 | 0.00 | 43 | 1005.2 |
| 20260504211522 | 27 | 255 | 12.9 | 24.1 | 0.00 | 0.00 | 0.00 | 42 | 1005.3 |
| 20260504210520 | 27 | 232 | 11.3 | 24.1 | 0.00 | 0.00 | 0.00 | 44 | 1005.5 |
| 20260504205518 | 27 | 252 | 12.9 | 22.5 | 0.00 | 0.00 | 0.00 | 44 | 1005.5 |
| 20260504204517 | 27 | 248 | 12.9 | 20.9 | 0.00 | 0.00 | 0.00 | 43 | 1005.6 |
| 20260504203535 | 27 | 227 | 9.7 | 22.5 | 0.00 | 0.00 | 0.00 | 43 | 1005.7 |
| 20260504202533 | 27 | 242 | 12.9 | 22.5 | 0.00 | 0.00 | 0.00 | 44 | 1006.0 |
| 20260504201531 | 26 | 239 | 11.3 | 17.7 | 0.00 | 0.00 | 0.00 | 45 | 1006.1 |
| 20260504200529 | 27 | 237 | 8.0 | 20.9 | 0.00 | 0.00 | 0.00 | 45 | 1006.1 |
| 20260504195527 | 27 | 246 | 11.3 | 20.9 | 0.00 | 0.00 | 0.00 | 45 | 1006.3 |
| 20260504194526 | 27 | 230 | 11.3 | 20.9 | 0.00 | 0.00 | 0.00 | 44 | 1006.3 |
| 20260504193544 | 27 | 242 | 9.7 | 20.9 | 0.00 | 0.00 | 0.00 | 43 | 1006.2 |
| 20260504192522 | 26 | 241 | 11.3 | 20.9 | 0.00 | 0.00 | 0.00 | 43 | 1006.5 |
| 20260504191540 | 26 | 243 | 11.3 | 27.4 | 0.00 | 0.00 | 0.00 | 45 | 1006.4 |
| 20260504190518 | 26 | 241 | 12.9 | 27.4 | 0.00 | 0.00 | 0.00 | 44 | 1006.5 |
| 20260504185516 | 26 | 244 | 12.9 | 25.7 | 0.00 | 0.00 | 0.00 | 45 | 1006.6 |
| 20260504184534 | 26 | 240 | 12.9 | 24.1 | 0.00 | 0.00 | 0.00 | 44 | 1006.5 |
| 20260504183532 | 26 | 229 | 14.5 | 27.4 | 0.00 | 0.00 | 0.00 | 45 | 1006.5 |
| 20260504182531 | 26 | 236 | 9.7 | 24.1 | 0.00 | 0.00 | 0.00 | 45 | 1006.6 |
| 20260504181529 | 26 | 233 | 11.3 | 19.3 | 0.00 | 0.00 | 0.00 | 45 | 1006.5 |
| 20260504180547 | 26 | 246 | 14.5 | 25.7 | 0.00 | 0.00 | 0.00 | 43 | 1006.6 |
| 20260504175525 | 26 | 245 | 11.3 | 22.5 | 0.00 | 0.00 | 0.00 | 45 | 1006.6 |
| 20260504174523 | 25 | 242 | 12.9 | 27.4 | 0.00 | 0.00 | 0.00 | 45 | 1006.9 |
| 20260504173521 | 25 | 241 | 12.9 | 20.9 | 0.00 | 0.00 | 0.00 | 45 | 1007.0 |
| 20260504172539 | 25 | 250 | 14.5 | 24.1 | 0.00 | 0.00 | 0.00 | 46 | 1007.0 |
| 20260504171517 | 25 | 233 | 11.3 | 22.5 | 0.00 | 0.00 | 0.00 | 46 | 1007.1 |
| 20260504170516 | 25 | 246 | 11.3 | 19.3 | 0.00 | 0.00 | 0.00 | 47 | 1007.1 |
| 20260504150533 | 22 | 242 | 9.7 | 17.7 | 0.00 | 0.00 | 0.00 | 49 | 1008.2 |
| 20260504140523 | 20 | 240 | 8.0 | 17.7 | 0.00 | 0.00 | 0.00 | 53 | 1008.9 |
| 20260504130531 | 18 | 254 | 9.7 | 24.1 | 0.00 | 0.00 | 0.00 | 55 | 1009.1 |